GW6595 Weather Reports


time (UTC)temp
C
wind
direction
speed
KPH
gust
KPH
rain 1hr
cm
rain 24hr
cm
rain mn
cm
humidity
%
barometer
mb
20260906074236 25 225 4.8 0.0 0.00 0.00 0.00 79 1011.7
20260906073636 -17 292 4.8 0.0 0.00 0.00 0.00 81 1011.7
20260906073409 25 0 9.7 0.0 0.00 0.00 0.00 82 1011.9
20260906072809 -17 90 3.2 0.0 0.00 0.00 0.00 83 1011.9
20260906072542 25 112 8.0 0.0 0.00 0.00 0.00 84 1012.0
20260906071942 -17 45 9.7 0.0 0.00 0.00 0.00 84 1012.0
20260906071715 25 270 3.2 0.0 0.00 0.00 0.00 84 1011.9
20260906071115 -17 158 4.8 0.0 0.00 0.00 0.00 84 1011.9
20260906070847 25 180 3.2 0.0 0.00 0.00 0.00 84 1012.0
20260906070248 -17 112 6.4 0.0 0.00 0.00 0.00 84 1012.0
20260906065957 25 90 6.4 0.0 0.00 0.00 0.00 84 1012.1
20260906065357 -17 0 8.0 0.0 0.00 0.00 0.00 83 1012.1
20260906064529 -17 158 3.2 0.0 0.00 0.00 0.00 83 1011.4
20260906064242 25 135 0.0 0.0 0.00 0.00 0.00 83 1011.3
20260906063415 25 158 0.0 0.0 0.00 0.00 0.00 83 1011.2
20260906062815 -17 158 0.0 0.0 0.00 0.00 0.00 83 1011.2
20260906062548 26 180 0.0 0.0 0.00 0.00 0.00 83 1010.9
20260906061948 -17 225 1.6 0.0 0.00 0.00 0.00 83 1010.9
20260906061121 -17 90 4.8 0.0 0.00 0.00 0.00 83 1010.9
20260906060854 26 158 3.2 0.0 0.00 0.00 0.00 83 1010.8
20260906060254 -17 180 0.0 0.0 0.00 0.00 0.00 83 1010.8
20260906060025 26 112 3.2 0.0 0.00 0.00 0.00 83 1010.6
20260906055425 -17 202 3.2 0.0 0.00 0.00 0.00 83 1010.6
20260906055158 26 158 8.0 0.0 0.00 0.00 0.00 84 1010.6
20260906054558 -17 158 6.4 0.0 0.00 0.00 0.00 84 1010.6
20260906054330 26 135 4.8 0.0 0.00 0.00 0.00 84 1010.7
20260906053730 -17 0 6.4 0.0 0.00 0.00 0.00 84 1010.7
20260906052903 -17 112 9.7 0.0 0.00 0.00 0.00 86 1010.7
20260906052636 24 112 6.4 0.0 0.00 0.00 0.00 87 1010.3
20260906051808 25 112 0.0 0.0 0.00 0.00 0.00 87 1010.2
20260906051208 -17 180 0.0 0.0 0.00 0.00 0.00 87 1010.2
20260906050940 25 90 0.0 0.0 0.00 0.00 0.00 87 1010.4
20260906050340 -17 0 0.0 0.0 0.00 0.00 0.00 86 1010.4
20260906050113 25 45 0.0 0.0 0.00 0.00 0.00 86 1010.4
20260906045513 -17 202 0.0 0.0 0.00 0.00 0.00 86 1010.4
20260906045245 25 202 0.0 0.0 0.00 0.00 0.00 86 1010.6
20260906044645 -17 112 0.0 0.0 0.00 0.00 0.00 86 1010.6
20260906044417 25 202 0.0 0.0 0.00 0.00 0.00 86 1010.8
20260906043818 -17 180 0.0 0.0 0.00 0.00 0.00 86 1010.8
20260906042951 -17 22 0.0 0.0 0.00 0.00 0.00 84 1010.7
20260906042723 25 22 0.0 0.0 0.00 0.00 0.00 84 1010.6
20260906042123 -17 180 0.0 0.0 0.00 0.00 0.00 83 1010.6
20260906041856 25 202 0.0 0.0 0.00 0.00 0.00 84 1010.8
20260906041256 -17 225 0.0 0.0 0.00 0.00 0.00 83 1010.8
20260906041029 25 158 0.0 0.0 0.00 0.00 0.00 83 1010.6
20260906040430 -17 158 0.0 0.0 0.00 0.00 0.00 83 1010.6
20260906040200 25 68 0.0 0.0 0.00 0.00 0.00 83 1010.7
20260906035333 25 112 0.0 0.0 0.00 0.00 0.00 83 1010.7
20260906034733 -17 112 0.0 0.0 0.00 0.00 0.00 83 1010.7
20260906034506 25 112 0.0 0.0 0.00 0.00 0.00 83 1010.6
20260906033906 -17 135 0.0 0.0 0.00 0.00 0.00 82 1010.6
20260906033640 26 158 0.0 0.0 0.00 0.00 0.00 82 1010.7
20260906033040 -17 135 0.0 0.0 0.00 0.00 0.00 82 1010.7
20260906032811 26 135 0.0 0.0 0.00 0.00 0.00 82 1010.5
20260906032211 -17 45 0.0 0.0 0.00 0.00 0.00 82 1010.5
20260906031943 26 270 0.0 0.0 0.00 0.00 0.00 82 1010.6
20260906031343 -17 135 0.0 0.0 0.00 0.00 0.00 81 1010.6
20260906031116 26 225 0.0 0.0 0.00 0.00 0.00 80 1010.5
20260906030516 -17 112 0.0 0.0 0.00 0.00 0.00 80 1010.5
20260906030249 26 180 0.0 0.0 0.00 0.00 0.00 80 1010.4
20260906025649 -17 202 0.0 0.0 0.00 0.00 0.00 80 1010.4
20260906025422 26 180 0.0 0.0 0.00 0.00 0.00 80 1010.4
20260906024822 -17 180 0.0 0.0 0.00 0.00 0.00 80 1010.4
20260906024554 26 270 0.0 0.0 0.00 0.00 0.00 80 1010.5
20260906023954 -17 248 0.0 0.0 0.00 0.00 0.00 80 1010.5
20260906023727 26 112 0.0 0.0 0.00 0.00 0.00 80 1010.3
20260906023127 26 68 0.0 0.0 0.00 0.00 0.00 79 1010.3
20260906022937 -17 248 0.0 0.0 0.00 0.00 0.00 79 1010.1
20260906022604 26 90 0.0 0.0 0.00 0.00 0.00 79 1010.1
20260906022004 -17 248 0.0 0.0 0.00 0.00 0.00 77 1010.1
20260906021136 -17 248 0.0 0.0 0.00 0.00 0.00 77 1009.8
20260906020909 26 180 0.0 0.0 0.00 0.00 0.00 77 1009.7
20260906015442 -17 180 0.0 0.0 0.00 0.00 0.00 76 1009.6
20260906015215 27 202 0.0 0.0 0.00 0.00 0.00 76 1009.5
20260906014615 -17 180 0.0 0.0 0.00 0.00 0.00 74 1009.5
20260906014348 27 158 0.0 0.0 0.00 0.00 0.00 74 1009.5
20260906013748 -17 225 0.0 0.0 0.00 0.00 0.00 73 1009.5
20260906013521 27 158 0.0 0.0 0.00 0.00 0.00 73 1009.3
20260906012653 27 68 0.0 0.0 0.00 0.00 0.00 72 1009.4
20260906012054 -17 135 0.0 0.0 0.00 0.00 0.00 70 1009.4
20260906011826 27 112 0.0 0.0 0.00 0.00 0.00 70 1009.3
20260906011226 -17 135 0.0 0.0 0.00 0.00 0.00 69 1009.3
20260906010132 27 90 0.0 0.0 0.00 0.00 0.00 67 1008.9
20260906005532 -17 112 0.0 0.0 0.00 0.00 0.00 66 1008.9
20260906005306 28 22 0.0 0.0 0.00 0.00 0.00 66 1008.8
20260906004704 -17 338 0.0 0.0 0.00 0.00 0.00 65 1008.8
20260906003607 28 112 6.4 0.0 0.00 0.00 0.00 64 1008.8
20260906003007 -17 90 4.8 0.0 0.00 0.00 0.00 64 1008.8
20260906002739 29 90 8.0 0.0 0.00 0.00 0.00 64 1008.8
20260906001312 30 112 6.4 0.0 0.00 0.00 0.00 62 1008.9
20260906000744 31 68 4.8 0.0 0.00 0.00 0.00 60 1009.1
20260906000215 31 45 9.7 0.0 0.00 0.00 0.00 58 1009.1
20260905235755 31 158 6.4 0.0 0.00 0.00 0.00 57 1009.0
20260905235114 32 68 6.4 0.0 0.00 0.00 0.00 55 1008.8
20260905234754 32 158 6.4 0.0 0.00 0.00 0.00 55 1008.7
20260905234433 -17 315 0.0 0.0 0.00 0.00 0.00 54 1008.5
20260905234350 33 158 0.0 0.0 0.00 0.00 0.00 54 1008.4
20260905233751 33 248 0.0 0.0 0.00 0.00 0.00 54 1008.4
20260905233430 34 135 1.6 0.0 0.00 0.00 0.00 55 1008.4
20260905233106 34 90 6.4 0.0 0.00 0.00 0.00 54 1008.3
20260905232745 34 202 4.8 0.0 0.00 0.00 0.00 54 1008.2
20260905232425 34 112 6.4 0.0 0.00 0.00 0.00 53 1008.1
20260905231422 35 158 3.2 0.0 0.00 0.00 0.00 52 1008.1
20260905231101 35 112 8.0 0.0 0.00 0.00 0.00 51 1008.1
20260905230741 36 158 4.8 0.0 0.00 0.00 0.00 50 1008.0
20260905230419 36 68 4.8 0.0 0.00 0.00 0.00 49
20260905230059 36 90 3.2 0.0 0.00 0.00 0.00 48 1007.8
20260905225737 36 270 4.8 0.0 0.00 0.00 0.00 50
20260905225417 37 225 4.8 0.0 0.00 0.00 0.00 49 1007.8
20260905225058 37 270 3.2 0.0 0.00 0.00 0.00 48 1007.7
20260905224416 36 0 0.0 0.0 0.00 0.00 0.00 53 1007.6
20260905224056 36 68 0.0 0.0 0.00 0.00 0.00 48 1007.7
20260905223735 36 22 4.8 0.0 0.00 0.00 0.00 49 1007.7
20260905223415 36 158 0.0 0.0 0.00 0.00 0.00 50 1007.7
20260905223052 36 248 6.4 0.0 0.00 0.00 0.00 48 1007.8
20260905222730 36 225 1.6 0.0 0.00 0.00 0.00 51 1007.7
20260905222049 36 22 4.8 0.0 0.00 0.00 0.00 49 1007.9
20260905221729 35 292 3.2 0.0 0.00 0.00 0.00 51 1007.8
20260905221409 35 270 4.8 0.0 0.00 0.00 0.00 51 1007.9
20260905221048 35 158 0.0 0.0 0.00 0.00 0.00 50 1008.0
20260905220728 35 270 1.6 0.0 0.00 0.00 0.00 51 1007.9
20260905220408 35 270 3.2 0.0 0.00 0.00 0.00 51 1008.0
20260905215726 35 225 1.6 0.0 0.00 0.00 0.00 51 1008.1
20260905215405 36 248 3.2 0.0 0.00 0.00 0.00 49 1008.1
20260905215044 36 248 6.4 0.0 0.00 0.00 0.00 48 1008.0
20260905214724 37 338 6.4 0.0 0.00 0.00 0.00 46 1008.0
20260905214403 38 292 4.8 0.0 0.00 0.00 0.00 45 1008.0
20260905214042 37 225 3.2 0.0 0.00 0.00 0.00 46 1007.9
20260905213722 -17 315 4.8 0.0 0.00 0.00 0.00 47 1007.9
20260905213639 37 180 1.6 0.0 0.00 0.00 0.00 46 1007.9
20260905213039 37 338 9.7 0.0 0.00 0.00 0.00 44 1007.9
20260905212359 37 338 3.2 0.0 0.00 0.00 0.00 45 1007.9
20260905212037 38 45 4.8 0.0 0.00 0.00 0.00 44 1008.0
20260905211716 -17 270 3.2 0.0 0.00 0.00 0.00 43 1008.1
20260905210953 38 22 3.2 0.0 0.00 0.00 0.00 44 1008.1
20260905210353 38 225 6.4 0.0 0.00 0.00 0.00 44 1008.1
20260905210032 37 270 3.2 0.0 0.00 0.00 0.00 45 1008.1
20260905205711 37 158 3.2 0.0 0.00 0.00 0.00 45 1008.1
20260905205350 37 248 4.8 0.0 0.00 0.00 0.00 45 1008.1
20260905205029 37 0 3.2 0.0 0.00 0.00 0.00 46 1008.2
20260905204710 37 45 3.2 0.0 0.00 0.00 0.00 46 1008.1
20260905204347 37 225 4.8 0.0 0.00 0.00 0.00 46
20260905204027 37 225 6.4 0.0 0.00 0.00 0.00 47 1008.3
20260905203707 37 270 3.2 0.0 0.00 0.00 0.00 47 1008.3
20260905203346 36 158 3.2 0.0 0.00 0.00 0.00 48 1008.4
20260905203026 35 225 3.2 0.0 0.00 0.00 0.00 50 1008.6
20260905202705 -17 270 3.2 0.0 0.00 0.00 0.00 51 1008.8
20260905202306 37 68 8.0 0.0 0.00 0.00 0.00 48 1008.6
20260905201702 37 135 9.7 0.0 0.00 0.00 0.00 48 1008.6
20260905201341 37 135 3.2 0.0 0.00 0.00 0.00 47 1008.6
20260905201021 36 315 1.6 0.0 0.00 0.00 0.00 46 1008.8
20260905200700 36 248 4.8 0.0 0.00 0.00 0.00 47 1008.9
20260905200339 36 112 3.2 0.0 0.00 0.00 0.00 49 1009.0
20260905200019 36 248 6.4 0.0 0.00 0.00 0.00 46 1009.1
20260905195659 36 90 4.8 0.0 0.00 0.00 0.00 48 1009.1
20260905195339 36 112 4.8 0.0 0.00 0.00 0.00 48 1009.3
20260905194657 38 45 4.8 0.0 0.00 0.00 0.00 43 1009.3
20260905194335 37 135 3.2 0.0 0.00 0.00 0.00 45 1009.2
20260905193319 38 158 4.8 0.0 0.00 0.00 0.00 45 1009.3
20260905192751 38 270 3.2 0.0 0.00 0.00 0.00 44 1009.4
20260905192224 37 68 8.0 0.0 0.00 0.00 0.00 45 1009.4
20260905191657 38 68 3.2 0.0 0.00 0.00 0.00 44 1009.7
20260905191129 37 180 6.4 0.0 0.00 0.00 0.00 44 1009.6
20260905190033 35 45 4.8 0.0 0.00 0.00 0.00 48 1010.0
20260905185506 37 68 3.2 0.0 0.00 0.00 0.00 48 1010.2
20260905184939 37 90 4.8 0.0 0.00 0.00 0.00 48 1010.0
20260905184412 36 90 4.8 0.0 0.00 0.00 0.00 49 1010.0
20260905183844 36 292 6.4 0.0 0.00 0.00 0.00 49 1010.4
20260905183317 36 0 6.4 0.0 0.00 0.00 0.00 50 1010.4
20260905182222 35 90 4.8 0.0 0.00 0.00 0.00 52 1010.5
20260905181655 36 68 1.6 0.0 0.00 0.00 0.00 51 1010.6
20260905181128 36 270 4.8 0.0 0.00 0.00 0.00 47 1010.6
20260905180600 36 135 6.4 0.0 0.00 0.00 0.00 49 1010.6
20260905180034 36 202 3.2 0.0 0.00 0.00 0.00 49 1010.7
20260905174948 36 158 4.8 0.0 0.00 0.00 0.00 50 1010.6
20260905174412 35 135 4.8 0.0 0.00 0.00 0.00 52 1010.9
20260905173316 35 315 9.7 0.0 0.00 0.00 0.00 50 1010.8
20260905172221 36 112 6.4 0.0 0.00 0.00 0.00 52 1011.0
20260905171704 36 112 8.0 0.0 0.00 0.00 0.00 50 1011.1
20260905171126 35 315 9.7 0.0 0.00 0.00 0.00 50 1011.2
20260905170559 36 180 0.0 0.0 0.00 0.00 0.00 50 1011.2
20260905170033 35 68 4.8 0.0 0.00 0.00 0.00 52 1011.2
20260905163842 35 202 4.8 0.0 0.00 0.00 0.00 54 1011.6
20260905163315 35 68 3.2 0.0 0.00 0.00 0.00 53 1011.7
20260905162751 35 248 0.0 0.0 0.00 0.00 0.00 54 1011.7
20260905162220 35 180 3.2 0.0 0.00 0.00 0.00 52 1011.7
20260905161653 35 158 1.6 0.0 0.00 0.00 0.00 56 1011.9
20260905160558 35 112 0.0 0.0 0.00 0.00 0.00 56 1012.1
20260905160032 35 68 4.8 0.0 0.00 0.00 0.00 57 1012.0
20260905154348 33 270 3.2 0.0 0.00 0.00 0.00 58 1012.1
20260905153820 -17 158 3.2 0.0 0.00 0.00 0.00 58 1012.2
20260905153326 33 180 3.2 0.0 0.00 0.00 0.00 57 1012.2
20260905152726 34 0 3.2 0.0 0.00 0.00 0.00 59 1012.2
20260905152159 33 180 4.8 0.0 0.00 0.00 0.00 58 1012.2
20260905151631 33 158 3.2 0.0 0.00 0.00 0.00 61 1012.2
20260905151102 32 270 4.8 0.0 0.00 0.00 0.00 63 1012.2
20260905150548 32 270 4.8 0.0 0.00 0.00 0.00 60 1012.2
20260905150009 32 248 3.2 0.0 0.00 0.00 0.00 62 1012.2
20260905145442 32 112 6.4 0.0 0.00 0.00 0.00 65 1012.2
20260905143822 31 112 3.2 0.0 0.00 0.00 0.00 64 1012.5
20260905143253 31 270 3.2 0.0 0.00 0.00 0.00 67 1012.5
20260905142726 31 270 4.8 0.0 0.00 0.00 0.00 66 1012.6
20260905142135 31 315 0.0 0.0 0.00 0.00 0.00 68 1012.6
20260905141607 30 180 1.6 0.0 0.00 0.00 0.00 74 1012.7
20260905140452 29 270 3.2 0.0 0.00 0.00 0.00 77 1012.9
20260905135925 28 112 0.0 0.0 0.00 0.00 0.00 77 1013.0
20260905135333 27 112 3.2 0.0 0.00 0.00 0.00 79 1013.1
20260905134806 -17 90 4.8 0.0 0.00 0.00 0.00 81 1013.2
20260905134256 27 22 0.0 0.0 0.00 0.00 0.00 85 1013.2
20260905133656 27 202 3.2 0.0 0.00 0.00 0.00 85 1013.2
20260905133128 26 225 0.0 0.0 0.00 0.00 0.00 85 1013.4
20260905132601 26 135 0.0 0.0 0.00 0.00 0.00 86 1013.4
20260905132008 26 225 0.0 0.0 0.00 0.00 0.00 88 1013.3
20260905131441 26 225 0.0 0.0 0.00 0.00 0.00 91 1013.4
20260905130913 25 292 0.0 0.0 0.00 0.00 0.00 91 1013.4
20260905130345 25 112 0.0 0.0 0.00 0.00 0.00 91 1013.5
20260905125817 -17 112 0.0 0.0 0.00 0.00 0.00 93 1013.6
20260905125323 25 158 0.0 0.0 0.00 0.00 0.00 93 1013.7
20260905124723 24 180 0.0 0.0 0.00 0.00 0.00 93 1013.7
20260905124156 24 112 0.0 0.0 0.00 0.00 0.00 94 1013.6
20260905123628 23 112 0.0 0.0 0.00 0.00 0.00 94 1013.6
20260905123101 23 90 3.2 0.0 0.00 0.00 0.00 94 1013.7
20260905121939 23 225 0.0 0.0 0.00 0.00 0.00 94 1013.8
20260905121411 22 158 0.0 0.0 0.00 0.00 0.00 94 1013.8
20260905120842 22 202 0.0 0.0 0.00 0.00 0.00 94 1013.7
20260905120315 22 202 0.0 0.0 0.00 0.00 0.00 93 1013.8
20260905115747 22 45 0.0 0.0 0.00 0.00 0.00 93 1013.7
20260905115221 22 202 0.0 0.0 0.00 0.00 0.00 93 1013.8
20260905114653 22 112 0.0 0.0 0.00 0.00 0.00 93 1013.6
20260905113621 22 202 0.0 0.0 0.00 0.00 0.00 93 1013.3
20260905113032 22 225 0.0 0.0 0.00 0.00 0.00 93 1013.3
20260905112504 -17 180 0.0 0.0 0.00 0.00 0.00 93 1013.4
20260905112237 22 202 0.0 0.0 0.00 0.00 0.00 93 1013.0
20260905111637 -17 202 0.0 0.0 0.00 0.00 0.00 93 1013.0
20260905110809 -17 338 0.0 0.0 0.00 0.00 0.00 93 1012.9
20260905110541 22 22 0.0 0.0 0.00 0.00 0.00 93 1012.9
20260905105941 -17 248 0.0 0.0 0.00 0.00 0.00 93 1012.9
20260905105714 22 225 0.0 0.0 0.00 0.00 0.00 93 1012.7
20260905105114 -17 45 0.0 0.0 0.00 0.00 0.00 93 1012.7
20260905104856 22 45 0.0 0.0 0.00 0.00 0.00 93 1012.7
20260905104256 -17 45 0.0 0.0 0.00 0.00 0.00 93 1012.7
20260905104019 22 45 0.0 0.0 0.00 0.00 0.00 93 1012.5
20260905103419 -17 0 0.0 0.0 0.00 0.00 0.00 93 1012.5
20260905103152 22 112 0.0 0.0 0.00 0.00 0.00 92 1012.4
20260905102552 -17 202 0.0 0.0 0.00 0.00 0.00 92 1012.4
20260905100857 -17 270 0.0 0.0 0.00 0.00 0.00 92 1012.4
20260905095802 22 90 0.0 0.0 0.00 0.00 0.00 92 1012.4
20260905095202 -17 90 0.0 0.0 0.00 0.00 0.00 92 1012.4
20260905094335 -17 90 0.0 0.0 0.00 0.00 0.00 92 1012.3
20260905094108 22 90 0.0 0.0 0.00 0.00 0.00 92 1012.3
20260905093508 -17 112 0.0 0.0 0.00 0.00 0.00 92 1012.3
20260905093240 22 112 0.0 0.0 0.00 0.00 0.00 91 1012.2
20260905092640 -17 158 0.0 0.0 0.00 0.00 0.00 91 1012.2
20260905092309 22 225 0.0 0.0 0.00 0.00 0.00 91 1012.2
20260905091709 -17 202 0.0 0.0 0.00 0.00 0.00 91 1012.2
20260905091443 23 225 0.0 0.0 0.00 0.00 0.00 91 1012.1
20260905090843 -17 135 0.0 0.0 0.00 0.00 0.00 91 1012.1
20260905090615 23 135 0.0 0.0 0.00 0.00 0.00 91 1012.1
20260905090015 -17 180 0.0 0.0 0.00 0.00 0.00 91 1012.1
20260905085747 23 180 0.0 0.0 0.00 0.00 0.00 91 1012.1
20260905085147 -17 202 0.0 0.0 0.00 0.00 0.00 91 1012.1
20260905084920 23 158 0.0 0.0 0.00 0.00 0.00 91 1012.2
20260905084319 -17 248 0.0 0.0 0.00 0.00 0.00 91 1012.2
20260905084052 23 225 0.0 0.0 0.00 0.00 0.00 91 1012.2
20260905083451 -17 270 0.0 0.0 0.00 0.00 0.00 91 1012.2
20260905083224 23 270 0.0 0.0 0.00 0.00 0.00 90 1012.1
20260905082624 -17 202 0.0 0.0 0.00 0.00 0.00 90 1012.1
20260905082356 23 158 0.0 0.0 0.00 0.00 0.00 90 1012.0
20260905081756 -17 112 0.0 0.0 0.00 0.00 0.00 90 1012.0
20260905081528 23 158 0.0 0.0 0.00 0.00 0.00 90 1011.9
20260905080928 -17 158 0.0 0.0 0.00 0.00 0.00 90 1011.9
20260905080700 23 202 0.0 0.0 0.00 0.00 0.00 90 1011.9
20260905080100 -17 270 0.0 0.0 0.00 0.00 0.00 90 1011.9
20260905075831 23 270 0.0 0.0 0.00 0.00 0.00 90 1011.9
20260905075231 -17 270 0.0 0.0 0.00 0.00 0.00 90 1011.9
20260905075004 23 270 0.0 0.0 0.00 0.00 0.00 90 1011.7